Regional Weather Roundup
Issued by NWS

Home | Current Version | Previous Version | Graphics & Text | Print | Product List | Glossary On
Versions: 1 2 3 4 5 6 7 8 9 10 11 12 13 14 15 16 17 18 19 20 21 22 23 24 25 26 27 28 29 30 31 32 33 34 35 36 37 38 39 40 41 42 43 44 45 46 47 48 49 50
000
ASUS43 KDTX 281201
RWRMI
MICHIGAN HOURLY REGIONAL WEATHER ROUNDUP
NATIONAL WEATHER SERVICE DETROIT/PONTIAC MI
800 AM EDT THU AUG 28 2014

NOTE: "FAIR" INDICATES FEW OR NO CLOUDS BELOW 12,000 FEET WITH NO
SIGNIFICANT WEATHER AND/OR OBSTRUCTION TO VISIBILITY.

MIZ047>049-052>055-059>063-066>070-074>076-081>083-281300-
SOUTHEAST LOWER MICHIGAN

CITY           SKY/WX    TMP DP  RH WIND       PRES   REMARKS
ADRIAN         CLOUDY    62  55  77 E6        30.17S
6HR MIN TEMP:  59; 6HR MAX TEMP:  62;

ALMA           SUNNY     50  48  95 CALM      30.20R
ANN ARBOR      MOSUNNY   60  53  77 CALM      30.16S
BAD AXE        SUNNY     50  50 100 NW3       30.17S
6HR MIN TEMP:  45; 6HR MAX TEMP:  52;

CARO           SUNNY     49  48  97 CALM      30.17S
DETROIT CITY   SUNNY     63  54  72 N5        30.17R
6HR MIN TEMP:  61; 6HR MAX TEMP:  66;

DETROIT        MOSUNNY   62  55  77 N3        30.17R
6HR MIN TEMP:  60; 6HR MAX TEMP:  64;

FLINT          SUNNY     59  52  77 N3        30.18R
6HR MIN TEMP:  55; 6HR MAX TEMP:  62;

GROSSE ILE     SUNNY     61  55  82 CALM      30.15S
HILLSDALE      CLOUDY    61  60  98 CALM      30.16S
6HR MIN TEMP:  56; 6HR MAX TEMP:  61;

HOWELL         SUNNY     56  55  98 N3        30.18R
6HR MIN TEMP:  54; 6HR MAX TEMP:  61;


CITY           SKY/WX    TMP DP  RH WIND       PRES   REMARKS
JACKSON        CLOUDY    61  57  87 CALM      30.17S
6HR MIN TEMP:  58; 6HR MAX TEMP:  61;

LAMBERTVILLE   MOSUNNY   63  55  77 NE3       30.16R
LANSING        MOSUNNY   55  51  86 CALM      30.19R
6HR MIN TEMP:  54; 6HR MAX TEMP:  60;

LAPEER         FAIR      52  51  96 CALM      30.18S
MASON          SUNNY     55  54  97 CALM      30.18R
MONROE         PTSUNNY   61  57  88 N5        30.15S
MT. CLEMENS    MOSUNNY   57  52  82 N7        30.16R
6HR MIN TEMP:  55; 6HR MAX TEMP:  60;

PONTIAC        MOSUNNY   58  53  84 N7        30.17R
6HR MIN TEMP:  55; 6HR MAX TEMP:  61;

PORT HOPE        N/A     62  52  69 MISG      30.15R
6HR MIN TEMP:  59; 6HR MAX TEMP:  62;

PORT HURON     SUNNY     54  54 100 CALM      30.17R
TRI CITIES     SUNNY     53  46  77 NW7       30.20R
6HR MIN TEMP:  50; 6HR MAX TEMP:  59;

TROY           SUNNY     60  54  79 N7        30.18S
SAGINAW HB     SUNNY     54  52  94 NW3       30.18R
$$
MIZ043>046-050>051-056>058-064>065-071>073-077>080-281300-
SOUTHWEST LOWER MICHIGAN

CITY           SKY/WX    TMP DP  RH WIND       PRES   REMARKS
BATTLE CREEK   CLOUDY    58  53  84 NE6       30.17S
6HR MIN TEMP:  55; 6HR MAX TEMP:  62;

BENTON HARBOR  CLEAR     57  52  83 E5        30.15S
6HR MIN TEMP:  55; 6HR MAX TEMP:  60;

BIG RAPIDS     CLEAR     47  47 100 CALM      30.19S
6HR MIN TEMP:  45; 6HR MAX TEMP:  51;

COLDWATER      CLEAR     59  57  94 NE3       30.16R
6HR MIN TEMP:  58; 6HR MAX TEMP:  63;

FREMONT        FAIR      52  50  95 CALM      30.18S
6HR MIN TEMP:  49; 6HR MAX TEMP:  56;

HOLLAND        CLEAR     57  51  80 E6        30.18R
6HR MIN TEMP:  54; 6HR MAX TEMP:  61;

GRAND RAPIDS   PTCLDY    55  52  89 E6        30.19R
6HR MIN TEMP:  53; 6HR MAX TEMP:  59;

IONIA          FAIR      53  50  90 NE5       30.18R
KALAMAZOO      MOCLDY    57  52  83 CALM      30.18R
6HR MIN TEMP:  55; 6HR MAX TEMP:  62;

LUDINGTON      CLEAR     49  49  97 CALM      30.19S
6HR MIN TEMP:  42; 6HR MAX TEMP:  55;

MARSHALL       CLOUDY    57  55  93 CALM      30.16S
MOUNT PLEASANT SUNNY     48  48  98 CALM      30.19S
6HR MIN TEMP:  45; 6HR MAX TEMP:  51;

MUSKEGON       PTCLDY    54  49  83 E3        30.18S
6HR MIN TEMP:  52; 6HR MAX TEMP:  58;

SOUTH HAVEN    CLEAR     56  53  90 E3        30.17R
$$
MIZ016>042-281300-
NORTHERN LOWER MICHIGAN

CITY           SKY/WX    TMP DP  RH WIND       PRES   REMARKS
ALPENA         SUNNY     48  45  89 NW3       30.19R
6HR MIN TEMP:  43; 6HR MAX TEMP:  49;

BEAVER ISLAND  CLOUDY    53  51  94 CALM      30.19S
BELLAIRE       PTCLDY    45  44  97 CALM      30.19F
6HR MIN TEMP:  41; 6HR MAX TEMP:  46;

CADILLAC       CLEAR     42  41  99 CALM      30.19S
CHARLEVOIX     CLEAR     51  49  92 CALM      30.22R
6HR MIN TEMP:  48; 6HR MAX TEMP:  51;

FRANKFORT      MOCLDY    49  46  89 CALM      30.19S
GAYLORD        SUNNY     44  41  89 CALM      30.20R
6HR MIN TEMP:  41; 6HR MAX TEMP:  48;

GRAYLING       SUNNY     41  41 100 MISG      30.21R
HARBOR SPRINGS MOSUNNY   47  45  92 CALM      30.19S
HOUGHTON LAKE  SUNNY     42  42 100 CALM      30.21R
6HR MIN TEMP:  38; 6HR MAX TEMP:  46;

MANISTEE       CLEAR     45  43  93 E3        30.20S
OSCODA         SUNNY     48  46  94 NW6       30.17S
PELLSTON       SUNNY     44  42  93 CALM      30.19F
6HR MIN TEMP:  37; 6HR MAX TEMP:  44;

TRAVERSE CITY  PTCLDY    50  48  93 CALM      30.18S
6HR MIN TEMP:  46; 6HR MAX TEMP:  51;

$$
MIZ007>008-015-281300-
EASTERN UPPER MICHIGAN

CITY           SKY/WX    TMP DP  RH WIND       PRES   REMARKS
KINROSS        SUNNY     45  45 100 CALM      30.19R
6HR MIN TEMP:  43; 6HR MAX TEMP:  48;

MACKINAC ISLAN SUNNY     50  49  95 N5        30.19S
6HR MIN TEMP:  47; 6HR MAX TEMP:  51;

NEWBERRY       CLEAR     43  42  94 W8        30.19R
S. S. MARIE    SUNNY     51  49  92 NW3       30.18R
6HR MIN TEMP:  44; 6HR MAX TEMP:  53;

$$
MIZ004>006-011>014-085-281300-
CENTRAL UPPER MICHIGAN

CITY           SKY/WX    TMP DP  RH WIND       PRES   REMARKS
MANISTIQUE     CLOUDY    50  46  84 CALM      30.19R
ESCANABA       MOCLDY    54  45  71 N5        30.18S
6HR MIN TEMP:  48; 6HR MAX TEMP:  55;

MENOMINEE      CLOUDY    55  54  94 CALM      30.15F
6HR MIN TEMP:  54; 6HR MAX TEMP:  63;

SAWYER-GWINN   CLEAR     43  41  93 CALM      30.19R
$$
MIZ001>003-009>011-084-281300-
WESTERN UPPER MICHIGAN

CITY           SKY/WX    TMP DP  RH WIND       PRES   REMARKS
IRON MOUNTAIN  MOCLDY    51  48  89 CALM      30.17S
6HR MIN TEMP:  49; 6HR MAX TEMP:  53;

HOUGHTON       PTCLDY    48  45  89 CALM      30.16S
6HR MIN TEMP:  44; 6HR MAX TEMP:  52;

COPPER HARBOR    N/A     54  44  69 SW6       30.16R
6HR MIN TEMP:  50; 6HR MAX TEMP:  54;

$$

ABBREVIATIONS USED IN REMARKS
   TC - TEMPERATURE IN CELSIUS
  WCI - WIND CHILL INDEX
   HX - HEAT INDEX
  VSB - VISIBILITY




USA.gov is the U.S. government's official web portal to all federal, state and local government web resources and services.